SCP
0 0 0 -0 -0 -0 0 0 0 0 0 0 0 0 0 0 0 0 0 0 0 0 0 0 0 0 0 0 0 0 0 0 0 0 0 0 0 0 0 0 0 0 0
0 0 0 -0 -0 -0 0 0 0 0 0 0 0 0 -0 -0 0 0 -0 0 0 0 0 0 0 0 0 0 0 -0 0 0 0 0 -0 0 0 0 0 0 0 0 0
0 0 0 -0 -0 0 0 0 0 0 0 0 0 -0 -0 -0 -0 -0 -0 0 0 0 0 0 0 0 0 0 -0 0 0 0 0 -0 -0 -0 0 0 0 0 0 0 0
0 0 0 0 -0 0 0 0 0 0 0 -0 0 0 0 0 0 0 0 0 0 0 0 0 0 0 0 -0 0 0 0 0 -0 -0 -0 -0 -0 0 0 0 0 0 0
0 0 0 0 -0 0 0 0 0 0 0 -0 -0 0 0 -0 0 0 0 0 0 0 0 0 0 0 0 0 0 0 0 0 0 0 0 -0 -0 -0 -0 -0 0 0 0
0 0 0 0 0 0 0 0 0 0 0 0 -0 -0 -0 0 -0 0 0 0 0 0 0 0 0 0 0 0 0 0 0 0 0 0 0 0 0 0 0 0 0 0 0
0 0 0 -0 -0 0 0 0 0 0 0 -0 -0 -0 -0 -0 -0 -0 -0 0 0 0 0 0 0 0 0 0 0 -0 0 -0 0 0 0 0 0 0 0 0 0 0 0
-0 0 0 -0 -0 -0 0 0 0 0 -0 -0 -0 -0 -0 0 -0 -0 -0 0 0 0 0 0 0 0 0 0 0 0 0 0 0 0 0 0 0 0 0 0 0 0 0
-0 -0 -0 0 -0 -0 -0 -0 0 0 0 -0 -0 -0 -0 -0 -0 -0 0 0 0 0 0 0 0 0 0 0 0 0 0 0 0 0 0 0 0 0 0 0 0 0 0
-0 0 -0 -0 0 0 -0 -0 0 0 0 0 0 -0 0 -0 -0 -0 -0 0 0 0 0 0 0 0 0 0 0 0 0 0 0 0 0 0 0 0 0 0 0 0 0
0 0 0 0 -0 -0 0 -0 0 0 -0 -0 0 -0 -0 -0 -0 -0 -0 0 0 0 0 0 0 0 0 0 0 0 0 0 0 0 0 0 0 0 0 0 0 0 0
0 0 0 0 0 0 0 0 0 0 0 0 0 0 0 0 -0 -0 -0 -0 0 0 0 0 0 0 0 0 0 0 0 0 0 0 0 0 0 0 0 0 0 0 0
0 0 0 0 0 0 0 0 0 0 0 0 0 0 0 0 0 0 0 0 0 0 0 0 0 0 0 0 0 0 0 0 0 0 0 0 0 0 0 0 0 0 0
0 0 0 0 0 0 0 -0 0 0 0 0 0 0 0 0 0 0 0 0 0 0 0 0 0 0 0 0 0 0 0 0 0 0 0 0 0 0 0 0 0 0 0
0 0 0 0 0 0 0 0 0 0 0 0 0 0 0 0 0 0 0 0 0 0 0 0 0 0 0 0 0 0 0 0 0 0 0 0 0 0 0 0 0 0 0
0 0 0 0 0 0 0 0 0 0 0 0 0 0 0 0 0 0 0 0 0 0 0 0 0 0 0 0 0 0 0 0 0 0 0 0 0 0 0 0 0 0 0
0 0 0 0 0 0 0 0 0 0 0 0 0 0 0 0 0 0 0 0 0 0 0 0 0 0 0 0 0 0 0 0 0 0 0 0 0 0 0 0 0 0 0
0 0 0 0 0 0 0 0 0 0 0 0 0 0 0 0 0 0 0 0 0 0 0 0 0 0 0 0 0 0 0 0 0 0 0 0 0 0 0 0 0 0 0
0 0 0 0 0 0 0 0 0 0 0 0 0 0 0 0 0 0 0 0 0 0 0 0 0 0 0 0 0 0 0 0 0 0 0 0 0 0 0 0 0 0 0
0 0 0 0 0 0 0 0 0 0 0 0 0 0 0 0 0 0 0 0 0 0 0 0 0 0 0 0 0 0 0 0 0 0 0 0 0 0 0 0 0 0 0
0 0 0 0 0 0 0 0 0 0 0 0 0 0 0 0 0 0 0 0 0 0 0 0 0 0 0 0 0 0 0 0 0 0 0 0 0 0 0 0 0 0 0
0 0 0 0 0 0 0 0 0 0 0 0 0 0 0 0 0 0 0 0 0 0 0 0 0 0 0 0 0 0 0 0 0 0 0 0 0 0 0 0 0 0 0
0 0 0 0 0 0 0 0 0 0 0 0 0 0 0 0 0 0 0 0 0 0 0 0 0 0 0 0 0 0 0 0 0 0 0 0 0 0 0 0 0 0 0
0 0 0 0 0 0 0 0 0 0 0 0 0 0 0 0 0 0 0 0 0 0 0 0 0 0 0 0 0 0 0 0 0 -0 -0 -0 -0 -0 -0 -0 -0 -0 -0
0 0 0 0 0 0 0 0 0 0 0 0 0 0 0 0 0 0 0 0 0 0 0 0 0 0 0 0 0 0 0 0 0 -0 -0 -0 -0 -0 -0 -0 -0 -0 -0
0 0 0 0 0 0 0 0 0 0 0 0 0 0 0 0 0 0 0 0 0 0 0 0 0 0 0 0 0 0 0 0 0 0 -0 -0 -0 -0 -0 -0 -0 -0 -0
Wind_Speed_500mb
9 4 3 2 4 5 5 3 4 3 7 5 12 25 44 40 42 43 38 39 43 38 35 36 40 50 45 29 23 19 17 18 13 16 22 21 17 16 16 13 16 13 13
4 4 3 6 11 10 11 7 6 11 6 13 25 38 46 41 40 38 30 33 32 37 33 43 39 42 34 37 26 21 20 15 15 14 15 21 22 23 22 23 21 18 14
6 5 6 14 15 16 16 11 12 13 15 22 34 36 40 37 35 31 25 23 27 30 39 33 33 31 30 31 34 27 18 16 12 12 14 19 25 23 25 25 24 21 16
11 8 14 23 21 23 21 17 19 22 23 32 33 39 35 31 31 28 26 24 27 25 33 32 29 29 26 25 29 22 18 14 12 11 14 13 15 23 25 26 28 24 18
12 14 22 27 26 21 28 25 28 28 33 43 35 35 31 27 29 27 22 15 19 26 28 31 23 21 21 21 23 21 16 13 13 14 14 16 19 24 26 25 24 25 25
14 20 25 28 27 26 29 32 32 30 33 47 38 37 37 36 30 23 17 17 25 17 18 17 22 23 20 18 15 14 13 12 13 16 19 21 14 15 19 22 25 31 32
18 25 29 31 29 31 33 31 36 36 31 34 39 38 35 32 25 24 30 26 20 17 19 20 21 19 15 13 13 17 17 18 17 17 18 21 19 17 22 26 30 31 36
23 29 35 35 31 31 34 31 33 35 39 40 38 36 32 33 25 22 20 20 23 25 23 24 20 18 17 15 14 12 12 12 13 16 21 23 24 23 22 26 30 34 37
28 28 35 39 33 32 31 31 31 33 33 33 35 31 27 27 26 24 20 24 26 23 20 16 12 10 8 5 6 6 10 12 15 18 20 22 25 26 29 30 33 34 38
30 30 32 36 34 31 31 30 29 28 28 28 26 25 23 21 25 20 19 16 13 15 12 11 8 6 1 3 9 12 16 18 20 23 24 26 28 31 32 32 35 37 38
34 32 32 33 34 33 27 23 21 17 10 7 3 2 7 16 15 15 15 10 9 8 6 4 1 2 5 9 14 17 18 19 20 22 24 26 27 28 29 32 36 40 44
36 35 33 32 31 29 28 25 21 17 13 12 13 15 20 16 12 11 9 4 4 2 1 3 5 7 10 14 16 19 22 24 27 27 27 27 28 28 28 30 33 38 42
39 37 34 33 32 31 29 27 25 24 21 18 15 15 16 13 12 10 7 4 1 3 6 8 11 13 16 18 20 23 26 28 29 30 30 30 30 30 32 33 34 36 40
40 38 36 33 31 30 28 26 23 21 18 15 13 13 14 13 11 9 7 6 5 7 8 10 13 16 19 21 23 24 25 28 30 32 32 33 33 33 35 36 37 39 42
43 40 37 34 31 29 27 24 22 20 18 15 14 14 13 12 11 11 10 8 7 6 8 10 13 15 17 19 21 23 25 27 29 32 34 36 36 36 37 39 41 42 44
46 46 43 38 34 31 28 26 24 23 21 19 16 14 10 8 7 7 6 4 3 3 5 8 12 16 20 23 24 25 26 29 31 33 34 36 37 38 39 40 40 43 45
43 41 41 42 38 33 31 29 26 23 21 20 18 16 15 12 9 8 6 5 3 6 10 17 22 24 27 29 31 32 32 33 34 36 38 39 40 40 41 42 42 44 46
41 37 36 35 34 33 31 28 25 23 21 20 18 17 16 13 11 11 10 8 8 10 18 20 20 21 22 24 25 26 27 29 31 32 32 33 34 37 38 38 40 43 46
46 42 39 36 33 30 30 30 28 24 21 18 18 19 20 17 15 14 10 9 12 17 16 13 11 12 14 16 19 23 25 25 28 31 32 34 35 37 38 38 40 40 42
47 43 42 40 38 38 34 31 28 26 25 22 21 19 16 13 11 9 7 5 7 7 6 7 10 11 12 14 16 19 22 24 27 28 30 31 33 35 38 40 40 43 43
48 49 50 45 41 37 35 33 31 30 26 23 21 20 18 14 13 9 4 3 1 1 3 5 8 10 13 16 18 20 22 25 27 30 33 35 38 39 38 38 40 41 43
43 42 42 41 40 39 35 33 34 32 29 24 21 20 19 19 15 11 9 8 9 9 10 10 10 11 14 17 21 23 27 29 31 34 36 37 38 38 39 39 40 42 43
40 40 40 41 40 38 40 40 35 30 28 26 25 25 23 21 19 18 18 18 17 15 14 13 14 16 20 23 25 28 30 33 37 39 39 40 42 42 43 44 45 46 47
36 39 42 46 49 46 43 42 40 33 33 32 32 29 28 26 25 24 23 22 18 18 17 17 19 21 21 24 28 32 34 35 36 38 40 42 43 44 45 46 47 48 49
41 42 42 42 42 44 44 40 38 39 37 35 33 31 29 27 26 24 24 24 23 23 22 21 20 22 24 27 30 32 32 32 35 38 40 42 43 43 45 46 47 47 48
34 37 41 43 45 43 42 41 40 38 36 35 34 35 33 32 30 29 28 27 25 23 20 21 24 24 25 28 29 29 30 32 34 36 39 40 40 42 44 46 47 49 49
Wind_Direction_500mb
1 14 18 215 165 109 50 44 63 337 300 256 172 167 162 172 176 184 192 192 196 201 204 194 209 216 226 214 208 216 244 234 248 241 231 229 223 219 220 217 227 253 268
57 41 71 142 145 116 78 71 42 31 54 141 147 156 159 168 176 176 181 185 194 206 206 200 200 210 213 226 216 221 221 239 250 248 254 236 223 218 220 225 226 236 250
86 110 118 130 131 105 89 91 48 52 98 130 150 153 160 168 170 172 172 180 178 178 189 191 191 201 216 219 225 221 229 249 231 236 251 238 228 228 233 237 234 242 252
94 100 129 129 126 112 101 89 63 67 111 125 147 143 154 163 166 172 162 171 190 191 200 201 193 201 207 221 204 215 238 226 248 232 236 240 239 242 240 242 243 251 257
99 103 128 132 129 119 111 97 85 84 111 128 121 119 140 138 144 147 150 152 156 158 163 175 179 185 184 202 225 233 239 254 218 224 240 246 256 244 246 248 249 257 258
114 117 129 130 124 123 123 113 98 103 103 120 121 135 130 131 128 133 137 150 150 165 165 165 193 176 186 189 196 217 220 233 225 235 242 255 263 264 252 248 247 253 258
128 129 131 127 123 125 126 118 115 111 126 123 120 122 126 122 129 140 141 133 133 130 143 159 168 172 193 190 191 200 203 216 227 232 249 264 270 265 258 258 256 258 264
139 140 140 134 130 123 122 127 120 120 117 118 116 116 121 121 137 148 151 156 148 147 150 157 163 169 170 180 196 208 233 248 265 270 269 268 260 256 257 258 258 261 266
146 143 149 145 134 125 130 130 127 122 117 113 107 105 101 108 105 108 131 144 148 150 150 143 152 160 168 192 243 261 269 277 279 279 279 279 277 275 271 267 261 265 267
150 145 148 155 146 137 131 126 122 116 116 109 102 90 85 102 107 115 103 96 109 117 117 122 117 117 91 316 310 307 307 304 301 295 292 288 288 286 280 275 269 264 264
155 150 147 149 159 163 159 152 149 149 140 110 44 324 127 108 109 108 111 112 102 96 102 98 105 328 305 307 307 306 305 304 303 304 300 296 293 291 287 284 280 273 271
159 157 154 151 152 155 163 172 177 176 171 156 138 130 127 139 146 143 164 162 160 180 272 310 317 313 307 310 312 312 310 308 307 305 303 301 298 296 294 290 284 280 279
166 165 164 161 161 160 159 160 161 161 159 152 146 138 149 148 150 152 153 148 100 337 334 326 320 313 309 307 306 305 302 301 301 300 301 302 302 301 297 293 287 281 277
174 172 171 171 170 170 169 168 169 170 168 166 162 161 168 173 178 188 203 226 254 281 291 291 289 289 290 293 295 296 296 294 294 296 298 299 299 299 298 295 293 289 284
181 180 179 180 180 179 177 177 176 178 182 187 190 195 200 203 208 216 228 240 256 276 295 299 299 298 298 299 300 301 302 301 302 304 305 307 307 304 303 302 301 299 297
190 183 182 183 186 187 187 189 189 189 189 191 190 189 197 205 204 207 208 204 228 275 306 313 319 319 317 315 313 313 312 311 311 312 313 314 313 312 309 307 305 305 304
201 196 189 182 182 187 186 188 190 190 192 196 197 197 191 191 209 229 230 201 220 311 324 321 314 311 313 319 322 323 324 325 324 323 322 321 318 316 315 314 314 313 311
204 208 207 201 193 191 194 198 204 205 203 206 215 219 221 210 218 231 228 256 282 309 319 319 318 325 331 334 334 334 336 336 335 335 333 332 329 326 325 323 319 315 312
201 204 207 206 207 206 205 205 205 210 210 213 221 228 230 225 218 216 236 270 298 323 333 329 341 346 352 355 355 351 349 350 348 347 346 345 342 339 336 333 330 329 327
205 204 209 207 205 207 208 210 212 210 212 220 225 221 216 209 194 194 215 262 297 321 341 358 9 8 12 13 11 6 359 357 355 354 351 349 348 346 343 340 338 335 333
204 207 210 209 207 208 208 208 209 209 210 207 205 205 200 194 195 194 227 270 322 91 99 56 41 26 27 26 20 11 3 359 356 353 350 348 344 342 339 337 335 335 334
204 209 214 212 210 207 206 205 205 201 193 190 188 181 189 196 190 180 163 133 117 107 93 83 71 58 44 29 26 18 14 10 7 5 2 357 353 349 344 341 334 329 327
196 199 202 203 204 201 196 193 190 183 182 189 183 179 177 172 163 152 143 134 126 115 100 83 67 61 54 45 35 28 19 16 14 11 7 4 1 359 356 354 350 345 343
193 198 199 198 197 195 192 186 180 183 181 176 172 169 165 159 152 145 138 128 122 114 103 93 80 64 51 45 39 37 36 31 25 24 23 20 18 15 12 10 7 3 357
188 191 192 193 189 185 181 178 178 177 174 171 167 162 158 151 146 143 138 132 127 118 106 90 75 67 59 56 54 49 46 42 38 35 33 31 28 26 23 20 17 14 10
184 182 183 181 178 176 176 175 173 172 170 164 161 158 157 155 151 146 139 131 124 116 107 97 86 76 69 63 57 52 49 47 43 40 37 35 33 31 27 25 22 20 18
Wind_Speed_850mb
9 4 3 2 4 5 5 3 4 3 7 5 12 25 44 40 42 43 38 39 43 38 35 36 40 50 45 29 23 19 17 18 13 16 22 21 17 16 16 13 16 13 13
4 4 3 6 11 10 11 7 6 11 6 13 25 38 46 41 40 38 30 33 32 37 33 43 39 42 34 37 26 21 20 15 15 14 15 21 22 23 22 23 21 18 14
6 5 6 14 15 16 16 11 12 13 15 22 34 36 40 37 35 31 25 23 27 30 39 33 33 31 30 31 34 27 18 16 12 12 14 19 25 23 25 25 24 21 16
11 8 14 23 21 23 21 17 19 22 23 32 33 39 35 31 31 28 26 24 27 25 33 32 29 29 26 25 29 22 18 14 12 11 14 13 15 23 25 26 28 24 18
12 14 22 27 26 21 28 25 28 28 33 43 35 35 31 27 29 27 22 15 19 26 28 31 23 21 21 21 23 21 16 13 13 14 14 16 19 24 26 25 24 25 25
14 20 25 28 27 26 29 32 32 30 33 47 38 37 37 36 30 23 17 17 25 17 18 17 22 23 20 18 15 14 13 12 13 16 19 21 14 15 19 22 25 31 32
18 25 29 31 29 31 33 31 36 36 31 34 39 38 35 32 25 24 30 26 20 17 19 20 21 19 15 13 13 17 17 18 17 17 18 21 19 17 22 26 30 31 36
23 29 35 35 31 31 34 31 33 35 39 40 38 36 32 33 25 22 20 20 23 25 23 24 20 18 17 15 14 12 12 12 13 16 21 23 24 23 22 26 30 34 37
28 28 35 39 33 32 31 31 31 33 33 33 35 31 27 27 26 24 20 24 26 23 20 16 12 10 8 5 6 6 10 12 15 18 20 22 25 26 29 30 33 34 38
30 30 32 36 34 31 31 30 29 28 28 28 26 25 23 21 25 20 19 16 13 15 12 11 8 6 1 3 9 12 16 18 20 23 24 26 28 31 32 32 35 37 38
34 32 32 33 34 33 27 23 21 17 10 7 3 2 7 16 15 15 15 10 9 8 6 4 1 2 5 9 14 17 18 19 20 22 24 26 27 28 29 32 36 40 44
36 35 33 32 31 29 28 25 21 17 13 12 13 15 20 16 12 11 9 4 4 2 1 3 5 7 10 14 16 19 22 24 27 27 27 27 28 28 28 30 33 38 42
39 37 34 33 32 31 29 27 25 24 21 18 15 15 16 13 12 10 7 4 1 3 6 8 11 13 16 18 20 23 26 28 29 30 30 30 30 30 32 33 34 36 40
40 38 36 33 31 30 28 26 23 21 18 15 13 13 14 13 11 9 7 6 5 7 8 10 13 16 19 21 23 24 25 28 30 32 32 33 33 33 35 36 37 39 42
43 40 37 34 31 29 27 24 22 20 18 15 14 14 13 12 11 11 10 8 7 6 8 10 13 15 17 19 21 23 25 27 29 32 34 36 36 36 37 39 41 42 44
46 46 43 38 34 31 28 26 24 23 21 19 16 14 10 8 7 7 6 4 3 3 5 8 12 16 20 23 24 25 26 29 31 33 34 36 37 38 39 40 40 43 45
43 41 41 42 38 33 31 29 26 23 21 20 18 16 15 12 9 8 6 5 3 6 10 17 22 24 27 29 31 32 32 33 34 36 38 39 40 40 41 42 42 44 46
41 37 36 35 34 33 31 28 25 23 21 20 18 17 16 13 11 11 10 8 8 10 18 20 20 21 22 24 25 26 27 29 31 32 32 33 34 37 38 38 40 43 46
46 42 39 36 33 30 30 30 28 24 21 18 18 19 20 17 15 14 10 9 12 17 16 13 11 12 14 16 19 23 25 25 28 31 32 34 35 37 38 38 40 40 42
47 43 42 40 38 38 34 31 28 26 25 22 21 19 16 13 11 9 7 5 7 7 6 7 10 11 12 14 16 19 22 24 27 28 30 31 33 35 38 40 40 43 43
48 49 50 45 41 37 35 33 31 30 26 23 21 20 18 14 13 9 4 3 1 1 3 5 8 10 13 16 18 20 22 25 27 30 33 35 38 39 38 38 40 41 43
43 42 42 41 40 39 35 33 34 32 29 24 21 20 19 19 15 11 9 8 9 9 10 10 10 11 14 17 21 23 27 29 31 34 36 37 38 38 39 39 40 42 43
40 40 40 41 40 38 40 40 35 30 28 26 25 25 23 21 19 18 18 18 17 15 14 13 14 16 20 23 25 28 30 33 37 39 39 40 42 42 43 44 45 46 47
36 39 42 46 49 46 43 42 40 33 33 32 32 29 28 26 25 24 23 22 18 18 17 17 19 21 21 24 28 32 34 35 36 38 40 42 43 44 45 46 47 48 49
41 42 42 42 42 44 44 40 38 39 37 35 33 31 29 27 26 24 24 24 23 23 22 21 20 22 24 27 30 32 32 32 35 38 40 42 43 43 45 46 47 47 48
34 37 41 43 45 43 42 41 40 38 36 35 34 35 33 32 30 29 28 27 25 23 20 21 24 24 25 28 29 29 30 32 34 36 39 40 40 42 44 46 47 49 49
Wind_Direction_850mb
1 14 18 215 165 109 50 44 63 337 300 256 172 167 162 172 176 184 192 192 196 201 204 194 209 216 226 214 208 216 244 234 248 241 231 229 223 219 220 217 227 253 268
57 41 71 142 145 116 78 71 42 31 54 141 147 156 159 168 176 176 181 185 194 206 206 200 200 210 213 226 216 221 221 239 250 248 254 236 223 218 220 225 226 236 250
86 110 118 130 131 105 89 91 48 52 98 130 150 153 160 168 170 172 172 180 178 178 189 191 191 201 216 219 225 221 229 249 231 236 251 238 228 228 233 237 234 242 252
94 100 129 129 126 112 101 89 63 67 111 125 147 143 154 163 166 172 162 171 190 191 200 201 193 201 207 221 204 215 238 226 248 232 236 240 239 242 240 242 243 251 257
99 103 128 132 129 119 111 97 85 84 111 128 121 119 140 138 144 147 150 152 156 158 163 175 179 185 184 202 225 233 239 254 218 224 240 246 256 244 246 248 249 257 258
114 117 129 130 124 123 123 113 98 103 103 120 121 135 130 131 128 133 137 150 150 165 165 165 193 176 186 189 196 217 220 233 225 235 242 255 263 264 252 248 247 253 258
128 129 131 127 123 125 126 118 115 111 126 123 120 122 126 122 129 140 141 133 133 130 143 159 168 172 193 190 191 200 203 216 227 232 249 264 270 265 258 258 256 258 264
139 140 140 134 130 123 122 127 120 120 117 118 116 116 121 121 137 148 151 156 148 147 150 157 163 169 170 180 196 208 233 248 265 270 269 268 260 256 257 258 258 261 266
146 143 149 145 134 125 130 130 127 122 117 113 107 105 101 108 105 108 131 144 148 150 150 143 152 160 168 192 243 261 269 277 279 279 279 279 277 275 271 267 261 265 267
150 145 148 155 146 137 131 126 122 116 116 109 102 90 85 102 107 115 103 96 109 117 117 122 117 117 91 316 310 307 307 304 301 295 292 288 288 286 280 275 269 264 264
155 150 147 149 159 163 159 152 149 149 140 110 44 324 127 108 109 108 111 112 102 96 102 98 105 328 305 307 307 306 305 304 303 304 300 296 293 291 287 284 280 273 271
159 157 154 151 152 155 163 172 177 176 171 156 138 130 127 139 146 143 164 162 160 180 272 310 317 313 307 310 312 312 310 308 307 305 303 301 298 296 294 290 284 280 279
166 165 164 161 161 160 159 160 161 161 159 152 146 138 149 148 150 152 153 148 100 337 334 326 320 313 309 307 306 305 302 301 301 300 301 302 302 301 297 293 287 281 277
174 172 171 171 170 170 169 168 169 170 168 166 162 161 168 173 178 188 203 226 254 281 291 291 289 289 290 293 295 296 296 294 294 296 298 299 299 299 298 295 293 289 284
181 180 179 180 180 179 177 177 176 178 182 187 190 195 200 203 208 216 228 240 256 276 295 299 299 298 298 299 300 301 302 301 302 304 305 307 307 304 303 302 301 299 297
190 183 182 183 186 187 187 189 189 189 189 191 190 189 197 205 204 207 208 204 228 275 306 313 319 319 317 315 313 313 312 311 311 312 313 314 313 312 309 307 305 305 304
201 196 189 182 182 187 186 188 190 190 192 196 197 197 191 191 209 229 230 201 220 311 324 321 314 311 313 319 322 323 324 325 324 323 322 321 318 316 315 314 314 313 311
204 208 207 201 193 191 194 198 204 205 203 206 215 219 221 210 218 231 228 256 282 309 319 319 318 325 331 334 334 334 336 336 335 335 333 332 329 326 325 323 319 315 312
201 204 207 206 207 206 205 205 205 210 210 213 221 228 230 225 218 216 236 270 298 323 333 329 341 346 352 355 355 351 349 350 348 347 346 345 342 339 336 333 330 329 327
205 204 209 207 205 207 208 210 212 210 212 220 225 221 216 209 194 194 215 262 297 321 341 358 9 8 12 13 11 6 359 357 355 354 351 349 348 346 343 340 338 335 333
204 207 210 209 207 208 208 208 209 209 210 207 205 205 200 194 195 194 227 270 322 91 99 56 41 26 27 26 20 11 3 359 356 353 350 348 344 342 339 337 335 335 334
204 209 214 212 210 207 206 205 205 201 193 190 188 181 189 196 190 180 163 133 117 107 93 83 71 58 44 29 26 18 14 10 7 5 2 357 353 349 344 341 334 329 327
196 199 202 203 204 201 196 193 190 183 182 189 183 179 177 172 163 152 143 134 126 115 100 83 67 61 54 45 35 28 19 16 14 11 7 4 1 359 356 354 350 345 343
193 198 199 198 197 195 192 186 180 183 181 176 172 169 165 159 152 145 138 128 122 114 103 93 80 64 51 45 39 37 36 31 25 24 23 20 18 15 12 10 7 3 357
188 191 192 193 189 185 181 178 178 177 174 171 167 162 158 151 146 143 138 132 127 118 106 90 75 67 59 56 54 49 46 42 38 35 33 31 28 26 23 20 17 14 10
184 182 183 181 178 176 176 175 173 172 170 164 161 158 157 155 151 146 139 131 124 116 107 97 86 76 69 63 57 52 49 47 43 40 37 35 33 31 27 25 22 20 18